This is the latest recevied weather packets stored in our database for station/object N6WDO. If no packets are shown the sender has not sent any weather packets the latest 10 day(s).
| Time | Temp. | Humidity | Pressure | Rain* | Wind** | Luminosity | Snow |
|---|---|---|---|---|---|---|---|
| 1777574629 | 22.78° C | 46% | 1016.2 hPa | 0 mm | - | 702 W/m² | - |
| 1777574327 | 22.78° C | 45% | 1016 hPa | 0 mm | - | 697 W/m² | - |
| 1777574026 | 22.78° C | 45% | 1016.1 hPa | 0 mm | - | 691 W/m² | - |
| 1777573721 | 22.78° C | 45% | 1016.1 hPa | 0 mm | - | 685 W/m² | - |
| 1777573418 | 22.78° C | 44% | 1016.3 hPa | 0 mm | - | 677 W/m² | - |
| 1777573114 | 22.78° C | 45% | 1016.2 hPa | 0 mm | - | 671 W/m² | - |
| 1777572811 | 22.22° C | 47% | 1016.1 hPa | 0 mm | - | 663 W/m² | - |
| 1777572506 | 22.22° C | 46% | 1016.2 hPa | 0 mm | - | 655 W/m² | - |
| 1777572202 | 22.22° C | 45% | 1016.1 hPa | 0 mm | - | 647 W/m² | - |
| 1777571897 | 22.22° C | 45% | 1016.2 hPa | 0 mm | - | 637 W/m² | - |
| 1777571593 | 22.22° C | 46% | 1016.3 hPa | 0 mm | - | 629 W/m² | - |
| 1777571291 | 22.22° C | 47% | 1016.2 hPa | 0 mm | - | 620 W/m² | - |
| 1777570986 | 22.22° C | 48% | 1016.3 hPa | 0 mm | - | 611 W/m² | - |
| 1777570683 | 21.67° C | 49% | 1016.5 hPa | 0 mm | - | 600 W/m² | - |
| 1777570379 | 21.67° C | 47% | 1016.2 hPa | 0 mm | - | 591 W/m² | - |
| 1777570075 | 21.11° C | 47% | 1016.5 hPa | 0 mm | - | 581 W/m² | - |
| 1777569771 | 21.67° C | 47% | 1016.3 hPa | 0 mm | - | 570 W/m² | - |
| 1777569466 | 21.67° C | 47% | 1016.2 hPa | 0 mm | - | 560 W/m² | - |
| 1777569164 | 21.67° C | 49% | 1016.2 hPa | 0 mm | - | 547 W/m² | - |
| 1777568860 | 21.67° C | 47% | 1016.2 hPa | 0 mm | - | 535 W/m² | - |
| 1777568557 | 22.22° C | 46% | 1016.3 hPa | 0 mm | - | 524 W/m² | - |
| 1777568254 | 22.22° C | 44% | 1016.3 hPa | 0 mm | - | 513 W/m² | - |
| 1777567951 | 21.67° C | 43% | 1016.3 hPa | 0 mm | - | 500 W/m² | - |
| 1777567647 | 20.56° C | 46% | 1016.3 hPa | 0 mm | - | 487 W/m² | - |
| 1777567345 | 20.56° C | 44% | 1016.2 hPa | 0 mm | - | 475 W/m² | - |
* Rain latest hour (hover to see other rain measurements)
** Current wind speed in m/s (hover to see current wind gust speed)